Погода в Путятине

Россия / Амурская область     51°45′26″N   129°03′29″E
темп.,
°C
ветер,
м/с
пор.,
м/с
влажн.,
%
обл.,
%
осадки,
мм/ч
давл.,
гПа
погр.,
м
25 июня, сб
сб2500:00+17св289024 0.0 993163
03:00+15ссв269887 0.1 993131
06:00+16св278573 0.0 994223
09:00+22св345620 0.0 995659
12:00+26св344486 0.0 9942089
15:00+26св464444 0.1 9952032
18:00+23всв3754100 0.0 996627
21:00+21св3106187 0.0 998412
26 июня, вс
вс2600:00+16св310790 0.0 999249
03:00+14св38871 0.0 1001189
06:00+16св26785 0.0 1003199
09:00+21св225817 0.0 1003648
12:00+26ссв22413 0.0 10031628
15:00+28ссв23341 0.0 10022181
18:00+27св22400 0.0 10031455
21:00+19ю25820 0.0 100493
27 июня, пн
пн2700:00+17ююз26960 0.0 1005118
03:00+15ююз24970 0.0 100677
06:00+17ю25890 0.0 1006167
09:00+23ююз3463100 0.0 1006782
12:00+27ю4545100 0.0 10051621
15:00+27ююз4545100 0.0 10031865
18:00+24юз3663100 0.1 1002818
21:00+19ююз2294100 1.9 100329
28 июня, вт
вт2800:00+18ю1196100 1.8 100213
03:00+17ююв279835 4.3 1001139
06:00+18юв3109741 1.6 1001405
09:00+21ююв36840 3.1 1000578
12:00+22ююв34855 1.6 999688
15:00+23ююв238112 5.8 998567
18:00+22юв238899 6.3 998180
21:00+18в229598 6.9 99850
29 июня, ср
ср2900:00+18юв119283 0.1 99811
03:00+17зсз019581 0.1 99911
06:00+18юз119497 0.0 99963
09:00+23ссз1267100 0.0 1000566
12:00+28ссз224523 0.1 10001948
15:00+27с234679 0.1 9991181
18:00+17св489594 1.5 1002319
21:00+17юз1297100 6.5 100341